When you browse on this site, cookies collect data to enhance your experience and personalize the content and advertising you see.
Visit our Privacy Policy to learn more. By continuing to use the site, you agree to this use of cookies and data.

Hourly Weather Armagh

Today, 9 July, Thursday

Time Temperature Precipitation Wind Pressure Humidity
00:00 +11°C° 0 mm 3 mps 753 mmHg 99%
01:00 +10°C° 0.1 mm 3 mps 753 mmHg 98%
02:00 +10°C° 0.1 mm 3 mps 753 mmHg 97%
03:00 +10°C° 0.1 mm 3 mps 753 mmHg 97%
04:00 +10°C° 0 mm 3 mps 754 mmHg 96%
05:00 +10°C° 0 mm 3 mps 754 mmHg 96%
06:00 +10°C° 0 mm 3 mps 755 mmHg 96%
07:00 +11°C° 0 mm 3 mps 755 mmHg 91%
08:00 +12°C° 0 mm 3 mps 755 mmHg 86%
09:00 +14°C° 0 mm 4 mps 756 mmHg 82%
10:00 +14°C° 0 mm 4 mps 756 mmHg 77%
11:00 +15°C° 0 mm 4 mps 756 mmHg 73%
12:00 +17°C° 0 mm 4 mps 757 mmHg 69%
13:00 +17°C° 0 mm 4 mps 757 mmHg 68%
14:00 +17°C° 0 mm 4 mps 757 mmHg 67%
15:00 +17°C° 0 mm 4 mps 757 mmHg 66%
16:00 +17°C° 0 mm 4 mps 757 mmHg 68%
17:00 +15°C° 0 mm 4 mps 757 mmHg 70%
18:00 +14°C° 0 mm 4 mps 757 mmHg 72%
19:00 +13°C° 0 mm 4 mps 757 mmHg 77%
20:00 +11°C° 0 mm 3 mps 757 mmHg 81%
21:00 +10°C° 0 mm 3 mps 758 mmHg 85%
22:00 +9°C° 0 mm 3 mps 758 mmHg 88%
23:00 +8°C° 0 mm 3 mps 758 mmHg 90%

Tomorrow, 10 July, Friday

Time Temperature Precipitation Wind Pressure Humidity
00:00 +7°C° 0 mm 3 mps 758 mmHg 93%
01:00 +7°C° 0 mm 3 mps 758 mmHg 93%
02:00 +7°C° 0 mm 3 mps 758 mmHg 93%
03:00 +7°C° 0 mm 3 mps 758 mmHg 94%
04:00 +7°C° 0 mm 3 mps 759 mmHg 92%
05:00 +8°C° 0 mm 3 mps 759 mmHg 91%
06:00 +8°C° 0 mm 4 mps 759 mmHg 89%
07:00 +10°C° 0.1 mm 4 mps 759 mmHg 85%
08:00 +12°C° 0.1 mm 4 mps 760 mmHg 81%
09:00 +13°C° 0.1 mm 5 mps 760 mmHg 77%
10:00 +14°C° 0.2 mm 5 mps 760 mmHg 76%
11:00 +14°C° 0.2 mm 5 mps 760 mmHg 75%
12:00 +15°C° 0.2 mm 5 mps 761 mmHg 73%
13:00 +15°C° 0.4 mm 5 mps 761 mmHg 75%
14:00 +15°C° 0.4 mm 5 mps 761 mmHg 76%
15:00 +15°C° 0.4 mm 6 mps 761 mmHg 78%
16:00 +14°C° 0.2 mm 5 mps 761 mmHg 78%
17:00 +14°C° 0.2 mm 5 mps 761 mmHg 78%
18:00 +14°C° 0.2 mm 4 mps 761 mmHg 78%
19:00 +13°C° 0.1 mm 4 mps 762 mmHg 84%
20:00 +11°C° 0.1 mm 3 mps 762 mmHg 89%
21:00 +10°C° 0.1 mm 2 mps 763 mmHg 94%
22:00 +9°C° 0 mm 2 mps 763 mmHg 95%
23:00 +9°C° 0 mm 2 mps 763 mmHg 95%

Day after tomorrow, 11 July, Saturday

Time Temperature Precipitation Wind Pressure Humidity
00:00 +8°C° 0 mm 2 mps 764 mmHg 96%
01:00 +8°C° 0 mm 2 mps 764 mmHg 96%
02:00 +7°C° 0 mm 2 mps 764 mmHg 96%
03:00 +7°C° 0 mm 2 mps 764 mmHg 96%
04:00 +7°C° 0 mm 2 mps 764 mmHg 95%
05:00 +8°C° 0 mm 2 mps 764 mmHg 95%
06:00 +9°C° 0 mm 2 mps 764 mmHg 95%
07:00 +10°C° 0 mm 2 mps 765 mmHg 91%
08:00 +13°C° 0 mm 2 mps 765 mmHg 87%
09:00 +14°C° 0 mm 2 mps 765 mmHg 82%
10:00 +14°C° 0.1 mm 3 mps 765 mmHg 78%
11:00 +16°C° 0.1 mm 3 mps 765 mmHg 74%
12:00 +17°C° 0.1 mm 3 mps 765 mmHg 70%
13:00 +17°C° 0.1 mm 2 mps 765 mmHg 70%
14:00 +17°C° 0.1 mm 2 mps 766 mmHg 69%
15:00 +18°C° 0.1 mm 2 mps 766 mmHg 69%
16:00 +17°C° 0.1 mm 2 mps 766 mmHg 72%
17:00 +17°C° 0.1 mm 2 mps 765 mmHg 74%
18:00 +17°C° 0.1 mm 2 mps 765 mmHg 77%
19:00 +15°C° 0 mm 1 mps 765 mmHg 81%
20:00 +13°C° 0 mm 1 mps 766 mmHg 85%
21:00 +12°C° 0 mm 1 mps 766 mmHg 89%
22:00 +11°C° 0 mm 1 mps 766 mmHg 90%
23:00 +10°C° 0 mm 1 mps 765 mmHg 91%

12 July, Sunday

Time Temperature Precipitation Wind Pressure Humidity
00:00 +9°C° 0 mm 0 mps 765 mmHg 92%
01:00 +10°C° 0 mm 1 mps 765 mmHg 92%
02:00 +9°C° 0 mm 1 mps 765 mmHg 93%
03:00 +9°C° 0 mm 1 mps 765 mmHg 93%
04:00 +10°C° 0 mm 1 mps 764 mmHg 93%
05:00 +11°C° 0 mm 1 mps 764 mmHg 93%
06:00 +11°C° 0 mm 1 mps 764 mmHg 92%
07:00 +12°C° 0 mm 2 mps 764 mmHg 89%
08:00 +13°C° 0 mm 2 mps 764 mmHg 86%
09:00 +14°C° 0 mm 3 mps 764 mmHg 83%
10:00 +13°C° 0 mm 3 mps 764 mmHg 82%
11:00 +13°C° 0 mm 3 mps 764 mmHg 80%
12:00 +13°C° 0 mm 3 mps 764 mmHg 78%
13:00 +13°C° 0 mm 3 mps 764 mmHg 78%
14:00 +13°C° 0 mm 4 mps 764 mmHg 79%
15:00 +13°C° 0 mm 4 mps 764 mmHg 79%
16:00 +14°C° 0.1 mm 3 mps 763 mmHg 82%
17:00 +14°C° 0.1 mm 3 mps 763 mmHg 85%
18:00 +14°C° 0.1 mm 3 mps 763 mmHg 89%
19:00 +14°C° 0 mm 3 mps 762 mmHg 90%
20:00 +14°C° 0 mm 3 mps 762 mmHg 91%
21:00 +14°C° 0 mm 3 mps 762 mmHg 93%
22:00 +14°C° 0.2 mm 3 mps 762 mmHg 94%
23:00 +14°C° 0.2 mm 4 mps 762 mmHg 95%

13 July, Monday

Time Temperature Precipitation Wind Pressure Humidity
00:00 +14°C° 0.2 mm 4 mps 761 mmHg 96%
01:00 +14°C° 0.1 mm 4 mps 761 mmHg 97%
02:00 +14°C° 0.1 mm 4 mps 761 mmHg 97%
03:00 +14°C° 0.1 mm 4 mps 761 mmHg 97%
04:00 +14°C° 0 mm 4 mps 760 mmHg 96%
05:00 +14°C° 0 mm 4 mps 760 mmHg 96%
06:00 +14°C° 0 mm 3 mps 760 mmHg 95%
07:00 +14°C° 0 mm 4 mps 760 mmHg 89%
08:00 +15°C° 0 mm 4 mps 760 mmHg 84%
09:00 +16°C° 0 mm 5 mps 760 mmHg 78%
10:00 +16°C° 0.1 mm 5 mps 760 mmHg 80%
11:00 +16°C° 0.1 mm 5 mps 760 mmHg 81%
12:00 +17°C° 0.1 mm 4 mps 760 mmHg 82%
13:00 +17°C° 0.1 mm 4 mps 760 mmHg 81%
14:00 +18°C° 0.1 mm 4 mps 760 mmHg 79%
15:00 +18°C° 0.1 mm 4 mps 760 mmHg 78%
16:00 +18°C° 0.1 mm 4 mps 760 mmHg 77%
17:00 +18°C° 0.1 mm 3 mps 760 mmHg 77%
18:00 +17°C° 0.1 mm 3 mps 760 mmHg 77%
19:00 +16°C° 0 mm 2 mps 760 mmHg 80%
20:00 +14°C° 0 mm 2 mps 760 mmHg 84%
21:00 +13°C° 0 mm 1 mps 760 mmHg 87%
22:00 +12°C° 0 mm 1 mps 760 mmHg 89%
23:00 +11°C° 0 mm 1 mps 760 mmHg 92%

14 July, Tuesday

Time Temperature Precipitation Wind Pressure Humidity
00:00 +11°C° 0 mm 1 mps 759 mmHg 94%
01:00 +11°C° 0 mm 1 mps 759 mmHg 94%
02:00 +12°C° 0 mm 1 mps 759 mmHg 94%
03:00 +12°C° 0 mm 1 mps 758 mmHg 93%
04:00 +13°C° 0 mm 1 mps 758 mmHg 94%
05:00 +13°C° 0 mm 2 mps 758 mmHg 94%
06:00 +13°C° 0 mm 2 mps 758 mmHg 95%
07:00 +13°C° 0.3 mm 2 mps 758 mmHg 96%
08:00 +13°C° 0.3 mm 3 mps 758 mmHg 96%
09:00 +13°C° 0.3 mm 3 mps 757 mmHg 97%
10:00 +13°C° 0.3 mm 3 mps 757 mmHg 97%
11:00 +13°C° 0.3 mm 3 mps 757 mmHg 97%
12:00 +13°C° 0.3 mm 4 mps 757 mmHg 96%
13:00 +13°C° 0.4 mm 4 mps 756 mmHg 96%
14:00 +13°C° 0.4 mm 4 mps 756 mmHg 96%
15:00 +12°C° 0.4 mm 4 mps 755 mmHg 96%
16:00 +12°C° 0.2 mm 4 mps 755 mmHg 97%
17:00 +12°C° 0.2 mm 4 mps 754 mmHg 97%
18:00 +12°C° 0.2 mm 5 mps 754 mmHg 97%
19:00 +13°C° 0.1 mm 4 mps 754 mmHg 97%
20:00 +13°C° 0.1 mm 4 mps 753 mmHg 97%
21:00 +13°C° 0.1 mm 4 mps 753 mmHg 98%
22:00 +13°C° 0 mm 4 mps 753 mmHg 98%
23:00 +13°C° 0 mm 4 mps 753 mmHg 97%
Show more